Bay City, TX

3:36 AM CDT on May 27, 2018 (GMT -0500)
Bay City

Weather History for KBYY - January, 2014

Change the Weather History Date:

Wednesday, January 22, 2014

  Actual Average (WUND) Record (WUND)
Temperature  
Mean Temperature 49 °F -  
Max Temperature 68 °F - - (-1)
Min Temperature 30 °F - - (-1)
Degree Days  
Heating Degree Days 16    
Moisture  
Dew Point 40 °F    
Average Humidity 66    
Maximum Humidity 92    
Minimum Humidity 30    
Precipitation  
Precipitation 0.00 in - - ()
Sea Level Pressure  
Sea Level Pressure 30.15 in    
Wind  
Wind Speed 4 mph (SE)    
Max Wind Speed 13 mph    
Max Gust Speed 20 mph    
Visibility 10 miles    
Events      
Averages and records for this station are not official NWS values.
T = Trace of Precipitation, MM = Missing Value Source: NWS Daily Summary

Daily Weather History Graph

Daily Weather History Graph

Search for Another Location

Airport or City:

Astronomy

Jan. 22, 2014 Rise Set
Actual Time 7:16 AM CST 5:54 PM CST
Civil Twilight 6:51 AM CST 6:19 PM CST
Nautical Twilight 6:22 AM CST 6:48 PM CST
Astronomical Twilight 5:54 AM CST 7:16 PM CST
Moon 11:52 PM CST (1/22) 10:50 AM CST (1/22)
Length of Visible Light 11h 28m
Length of Day
10h 37m
Waning Gibbous, 65% of the Moon is Illuminated
Jan 22
Waning Gibbous
Jan 23
Last Quarter
Jan 30
New
Feb 6
First Quarter
Feb 14
Full

Hourly Weather History & Observations

Time (CST) Temp. Windchill Dew Point Humidity Pressure Visibility Wind Dir Wind Speed Gust Speed Precip Events Conditions
12:15 AM 37.0 °F - 29.8 °F 75% 30.26 in 10.0 mi Calm Calm - N/A   Clear
12:35 AM 36.7 °F - 30.0 °F 77% 30.25 in 10.0 mi Calm Calm - N/A   Clear
12:55 AM 35.4 °F - 30.6 °F 82% 30.25 in 10.0 mi Calm Calm - N/A   Clear
1:15 AM 33.6 °F 29.4 °F 29.8 °F 86% 30.24 in 10.0 mi ENE 4.6 mph - N/A   Clear
1:35 AM 32.9 °F 27.5 °F 29.7 °F 88% 30.24 in 10.0 mi NE 5.8 mph - N/A   Clear
1:55 AM 34.9 °F 32.0 °F 28.8 °F 78% 30.24 in 10.0 mi ENE 3.5 mph - N/A   Clear
2:15 AM 36.0 °F 32.1 °F 27.9 °F 72% 30.23 in 10.0 mi ENE 4.6 mph - N/A   Clear
2:35 AM 35.6 °F 29.9 °F 27.7 °F 73% 30.22 in 10.0 mi ENE 6.9 mph - N/A   Clear
2:55 AM 36.9 °F 33.1 °F 27.5 °F 69% 30.21 in 10.0 mi East 4.6 mph - N/A   Clear
3:15 AM 39.2 °F - 26.1 °F 59% 30.21 in 10.0 mi Calm Calm - N/A   Clear
3:55 AM 39.9 °F - 25.5 °F 56% 30.20 in 10.0 mi Calm Calm - N/A   Clear
4:15 AM 40.8 °F - 25.3 °F 54% 30.20 in 10.0 mi Calm Calm - N/A   Clear
4:35 AM 40.1 °F - 25.9 °F 57% 30.19 in 10.0 mi Calm Calm - N/A   Clear
4:55 AM 38.7 °F - 26.2 °F 61% 30.19 in 10.0 mi Calm Calm - N/A   Clear
5:15 AM 35.8 °F - 27.1 °F 71% 30.20 in 10.0 mi Calm Calm - N/A   Clear
5:35 AM 33.8 °F 30.8 °F 27.1 °F 77% 30.20 in 10.0 mi SSW 3.5 mph - N/A   Clear
5:55 AM 32.2 °F - 27.3 °F 82% 30.20 in 10.0 mi Calm Calm - N/A   Clear
6:15 AM 31.8 °F - 27.5 °F 84% 30.20 in 10.0 mi Calm Calm - N/A   Clear
6:35 AM 33.3 °F - 27.5 °F 79% 30.21 in 10.0 mi Calm Calm - N/A   Clear
6:55 AM 32.7 °F - 27.7 °F 82% 30.20 in 10.0 mi Calm Calm - N/A   Clear
7:15 AM 31.3 °F 27.9 °F 27.7 °F 87% 30.20 in 10.0 mi East 3.5 mph - N/A   Clear
7:35 AM 30.9 °F - 27.5 °F 87% 30.20 in 10.0 mi Calm Calm - N/A   Clear
7:55 AM 32.5 °F - 28.9 °F 87% 30.21 in 10.0 mi Calm Calm - N/A   Clear
8:15 AM 35.4 °F 31.5 °F 31.6 °F 86% 30.21 in 10.0 mi SE 4.6 mph - N/A   Clear
8:35 AM 41.5 °F - 36.3 °F 82% 30.21 in 10.0 mi Calm Calm - N/A   Clear
8:55 AM 48.6 °F - 41.2 °F 76% 30.21 in 10.0 mi ESE 4.6 mph - N/A   Clear
9:15 AM 52.9 °F - 43.3 °F 70% 30.21 in 10.0 mi SE 3.5 mph - N/A   Clear
9:35 AM 56.5 °F - 44.4 °F 64% 30.21 in 10.0 mi SE 8.1 mph - N/A   Clear
9:55 AM 59.0 °F - 43.7 °F 57% 30.22 in 10.0 mi SSE 11.5 mph - N/A   Clear
10:15 AM 61.0 °F - 41.4 °F 48% 30.22 in 10.0 mi South 11.5 mph - N/A   Clear
10:35 AM 62.6 °F - 40.8 °F 45% 30.22 in 10.0 mi SSE 11.5 mph - N/A   Clear
10:55 AM 63.7 °F - 41.0 °F 43% 30.22 in 10.0 mi SSE 10.4 mph - N/A   Clear
11:15 AM 64.6 °F - 40.5 °F 41% 30.21 in 10.0 mi South 10.4 mph 16.1 mph N/A   Clear
11:35 AM 65.3 °F - 39.6 °F 39% 30.20 in 10.0 mi South 10.4 mph - N/A   Clear
11:55 AM 66.2 °F - 39.9 °F 38% 30.19 in 10.0 mi SSE 9.2 mph - N/A   Clear
12:15 PM 66.4 °F - 38.7 °F 36% 30.18 in 10.0 mi South 9.2 mph - N/A   Clear
12:35 PM 66.7 °F - 38.8 °F 36% 30.16 in 10.0 mi South 10.4 mph 16.1 mph N/A   Clear
12:55 PM 67.5 °F - 39.2 °F 36% 30.15 in 10.0 mi South 11.5 mph 18.4 mph N/A   Clear
1:15 PM 68.0 °F - 39.4 °F 35% 30.14 in 10.0 mi South 12.7 mph 19.6 mph N/A   Clear
1:35 PM 68.0 °F - 38.5 °F 34% 30.13 in 10.0 mi South 10.4 mph - N/A   Clear
1:55 PM 68.0 °F - 36.1 °F 31% 30.12 in 10.0 mi South 9.2 mph - N/A   Clear
2:15 PM 68.4 °F - 35.4 °F 30% 30.11 in 10.0 mi SSE 12.7 mph - N/A   Clear
2:35 PM 68.2 °F - 36.9 °F 32% 30.10 in 10.0 mi SSE 10.4 mph 17.3 mph N/A   Clear
2:55 PM 68.2 °F - 38.8 °F 34% 30.09 in 10.0 mi SSE 10.4 mph 16.1 mph N/A   Clear
3:15 PM 68.0 °F - 42.1 °F 39% 30.09 in 10.0 mi SSE 11.5 mph - N/A   Clear
3:35 PM 67.3 °F - 45.3 °F 45% 30.08 in 10.0 mi South 11.5 mph 18.4 mph N/A   Clear
3:55 PM 66.7 °F - 46.2 °F 48% 30.07 in 10.0 mi SSE 12.7 mph 16.1 mph N/A   Clear
4:15 PM 65.3 °F - 46.9 °F 51% 30.06 in 10.0 mi SSE 10.4 mph - N/A   Clear
4:35 PM 65.1 °F - 48.2 °F 54% 30.06 in 10.0 mi SSE 8.1 mph - N/A   Clear
4:55 PM 64.6 °F - 49.1 °F 57% 30.08 in 10.0 mi South 10.4 mph - N/A   Clear
5:15 PM 63.9 °F - 49.1 °F 59% 30.07 in 10.0 mi South 6.9 mph - N/A   Clear
5:35 PM 62.8 °F - 49.5 °F 62% 30.08 in 10.0 mi South 6.9 mph - N/A   Clear
5:55 PM 61.3 °F - 49.5 °F 65% 30.07 in 10.0 mi SSE 4.6 mph - N/A   Clear
6:15 PM 60.3 °F - 50.0 °F 69% 30.06 in 10.0 mi SE 3.5 mph - N/A   Clear
6:35 PM 58.8 °F - 49.8 °F 72% 30.06 in 10.0 mi ESE 3.5 mph - N/A   Clear
6:55 PM 56.5 °F - 49.6 °F 78% 30.07 in 10.0 mi Calm Calm - N/A   Clear
7:15 PM 55.9 °F - 49.6 °F 79% 30.06 in 10.0 mi ESE 4.6 mph - N/A   Clear
7:35 PM 55.0 °F - 49.5 °F 81% 30.07 in 10.0 mi East 3.5 mph - N/A   Clear
7:55 PM 54.7 °F - 49.5 °F 83% 30.07 in 10.0 mi East 4.6 mph - N/A   Clear
8:15 PM 55.0 °F - 50.0 °F 83% 30.06 in 10.0 mi East 5.8 mph - N/A   Clear
8:35 PM 55.8 °F - 50.4 °F 82% 30.06 in 10.0 mi East 5.8 mph - N/A   Clear
8:55 PM 55.6 °F - 50.7 °F 84% 30.06 in 10.0 mi East 5.8 mph - N/A   Clear
9:15 PM 55.6 °F - 51.1 °F 85% 30.07 in 10.0 mi ESE 4.6 mph - N/A   Clear
9:35 PM 56.3 °F - 51.6 °F 84% 30.07 in 10.0 mi ESE 5.8 mph - N/A   Clear
9:55 PM 56.8 °F - 52.2 °F 84% 30.07 in 10.0 mi ESE 5.8 mph - N/A   Clear
10:15 PM 57.0 °F - 52.5 °F 85% 30.07 in 10.0 mi ESE 5.8 mph - N/A   Clear
10:35 PM 56.7 °F - 52.5 °F 86% 30.08 in 10.0 mi ESE 4.6 mph - N/A   Scattered Clouds
10:55 PM 56.5 °F - 52.7 °F 87% 30.07 in 10.0 mi ESE 5.8 mph - N/A   Scattered Clouds
11:15 PM 55.6 °F - 52.2 °F 88% 30.07 in 10.0 mi East 4.6 mph - N/A   Scattered Clouds
11:35 PM 54.5 °F - 51.8 °F 91% 30.07 in 10.0 mi East 4.6 mph - N/A   Scattered Clouds
11:55 PM 54.0 °F - 51.6 °F 92% 30.07 in 10.0 mi East 4.6 mph - N/A   Scattered Clouds